• Processing (Info)

  • MPEC 2013-A78 : 2013 AX60

    The following Minor Planet Electronic Circular may be linked-to from your own Web pages, but must not otherwise be redistributed electronically.

    A form allowing access to any MPEC is at the bottom of this page.


    Read MPEC 2013-A77 Read MPEC 2013-A79


    M.P.E.C. 2013-A78                                Issued 2013 Jan. 12, 14:06 UT
    
         The Minor Planet Electronic Circulars contain information on unusual
             minor planets and routine data on comets.  They are published
       on behalf of Commission 20 of the International Astronomical Union by the
              Minor Planet Center, Smithsonian Astrophysical Observatory,
                              Cambridge, MA 02138, U.S.A.
    
                 Prepared using the Tamkin Foundation Computer Network
    
                                  MPC@CFA.HARVARD.EDU
                URL https://www.minorplanetcenter.net/    ISSN 1523-6714
    
                                       2013 AX60
    
    Observations:
         K13A60X* C2013 01 10.13588 03 03 53.31 +30 44 42.6          20.5 VrEA078G96
         K13A60X  C2013 01 10.14071 03 03 53.96 +30 44 58.0          20.3 VrEA078G96
         K13A60X  C2013 01 10.14553 03 03 54.57 +30 45 13.3          20.6 VrEA078G96
         K13A60X  C2013 01 10.15029 03 03 55.22 +30 45 28.4          20.1 VrEA078G96
         K13A60X  C2013 01 10.16059 03 03 56.48 +30 46 00.1          20.3 RtEA078H01
         K13A60X  C2013 01 10.16827 03 03 57.48 +30 46 24.2          20.7 RtEA078H01
         K13A60X KC2013 01 10.17009 03 03 57.74 +30 46 31.3          20.8 VoEA078G48
         K13A60X  C2013 01 10.17505 03 03 58.37 +30 46 45.6          20.5 RtEA078H01
         K13A60X KC2013 01 10.17701 03 03 58.64 +30 46 52.6          20.2 VoEA078G48
         K13A60X  C2013 01 10.18158 03 03 59.22 +30 47 06.1          20.7 RtEA078H01
         K13A60X KC2013 01 10.18389 03 03 59.55 +30 47 14.7          20.0 VoEA078G48
         K13A60X  C2013 01 10.19679 03 04 01.29 +30 47 55.1          20.6 VrEA078G96
         K13A60X  C2013 01 10.20542 03 04 02.41 +30 48 21.6          20.6 VrEA078G96
         K13A60X  C2013 01 10.21403 03 04 03.54 +30 48 48.8          20.7 VrEA078G96
         K13A60X  C2013 01 10.22272 03 04 04.69 +30 49 15.8          20.9 VrEA078G96
         K13A60X  C2013 01 12.19676 03 08 41.49 +32 27 47.1          20.8 RtEA078H01
         K13A60X  C2013 01 12.19923 03 08 41.92 +32 27 55.4          21.1 VrEA078G96
         K13A60X  C2013 01 12.19976 03 08 41.89 +32 27 55.7          20.7 RtEA078H01
         K13A60X  C2013 01 12.20071 03 08 42.03 +32 27 59.5          21.4 VrEA078G96
         K13A60X  C2013 01 12.20244 03 08 42.28 +32 28 04.3          21.4 VrEA078G96
         K13A60X  C2013 01 12.20572 03 08 42.72 +32 28 13.1          20.4 VrEA078G96
         K13A60X  C2013 01 12.21168 03 08 43.48 +32 28 29.0          20.3 RtEA078H01
         K13A60X  C2013 01 12.21802 03 08 44.31 +32 28 47.0          20.7 RtEA078H01
    
    Observer details:
    G48 Doc Greiner Research Obs., Rancho Hildalgo.  Observer M. Mills.  0.4-m
        f/10 Schmidt-Cassegrain + CCD.
    G96 Mt. Lemmon Survey.  Observers R. A. Kowalski, R. E. Hill.  Measurers
        A. Boattini, E. J. Christensen, A. R. Gibbs, A. D. Grauer, R. E. Hill,
        J. A. Johnson, R. A. Kowalski, S. M. Larson, R. H. McNaught.  1.5-m
        reflector + CCD.
    H01 Magdalena Ridge Observatory, Socorro.  Observer W. H. Ryan.  2.4-m f/8.9
        reflector + CCD.
    
    Orbital elements:
    2013 AX60                                                Earth MOID = 0.1274 AU
    Epoch 2012 Sept. 30.0 TT = JDT 2456200.5                MPC
    M 348.00570              (2000.0)            P               Q
    n   0.55207437     Peri.  282.39981     +0.89966164     -0.13229740
    a   1.4716493      Node    86.33200     +0.30647300     +0.87008961
    e   0.3889932      Incl.   24.63994     -0.31093927     +0.47480678
    P   1.79           H   20.7           G   0.15           U   9
    Residuals in seconds of arc
    130110 G96  0.2-  0.1-    130110 G48  0.1-  0.1-    130112 G96  0.5+  0.3+
    130110 G96  0.0   0.0     130110 H01  0.1+  0.1-    130112 H01  0.1+  0.1-
    130110 G96  0.2-  0.0     130110 G48  0.1+  0.3+    130112 G96  0.6-  0.2+
    130110 G96  0.2+  0.0     130110 G96  0.1+  0.3+    130112 G96  0.3-  0.2+
    130110 H01  0.2+  0.0     130110 G96  0.1-  0.2-    130112 G96  0.2-  0.3-
    130110 H01  0.1+  0.1-    130110 G96  0.1-  0.0     130112 H01  0.2+  0.2-
    130110 G48  0.0   0.3+    130110 G96  0.1-  0.1-    130112 H01  0.1+  0.1+
    130110 H01  0.2+  0.1-    130112 H01  0.1+  0.2-
    
    Ephemeris:
    2013 AX60                a,e,i = 1.47, 0.39, 25                  q = 0.8992
    Date    TT    R. A. (2000) Decl.     Delta      r     Elong.  Phase     V
    2012 12 13    01 50 18.7 -26 00 40   0.1927  1.0632   109.1    61.1    19.4
    ...
    2012 12 28    02 32 53.4 +13 35 04   0.2590  1.1475   123.7    45.5    19.8
    ...
    2013 01 05    02 51 55.6 +25 30 32   0.3286  1.1947   123.0    43.6    20.4
    ...
    2013 01 11    03 05 54.2 +31 29 19   0.3890  1.2305   121.1    43.2    20.8
    2013 01 12    03 08 14.4 +32 18 25   0.3996  1.2365   120.7    43.1    20.8
    2013 01 13    03 10 35.0 +33 04 59   0.4103  1.2424   120.4    43.1    20.9
    ...
    2013 01 19    03 24 47.6 +36 58 40   0.4767  1.2784   117.9    42.9    21.3
    ...
    2013 01 27    03 44 15.5 +40 39 05   0.5701  1.3260   114.4    42.6    21.7
    ...
    2013 02 11    04 22 31.3 +44 40 56   0.7557  1.4134   107.7    41.7    22.5
    
    A. U. Tomatic                (C) Copyright 2013 MPC           M.P.E.C. 2013-A78
    

    Read MPEC 2013-A77 Read MPEC 2013-A79


    MPEC number:

    Enter an MPEC number in one of the following forms:

    • 1997-B01 (the full form)
    • J97B01 (the packed version of the full form)
    • B01 (the abbreviated form)